Location: Alafon
(8.4500°N, 4.2333°E)
Time: 18:04:15
(UTC+00:00)

deb Explorer IX - Pass Details

Date: 29 July 2021
Orbit: 545 x 1091 km, 38.8° (Epoch: 20 September)

Event Time Altitude Azimuth Distance (km) Brightness Sun altitude
Rises 18:36:52 0° 337° (NNW) 3,716 ? -8.4°
Reaches altitude 10° 18:41:13 10° 3° (N) 2,852 ? -9.4°
Maximum altitude 18:44:25 13° 30° (NNE) 2,649 ? -10.1°
Drops below altitude 10° 18:47:40 10° 57° (ENE) 2,923 ? -10.9°
Enters shadow 18:50:02 - 72° (ENE) 3,366 ? -11.4°
Sets 18:52:13 0° 82° (E) 3,885 - -11.9°
